Tacoma, WA

10:21 PM PST on November 22, 2017 (GMT -0800)
McChord Air Force Base

Weather History for KTCM - March, 2012

Change the Weather History Date:

Thursday, March 8, 2012

  Actual Average Record
Temperature  
Mean Temperature 44 °F -  
Max Temperature 63 °F 49 °F 69 °F (2005)
Min Temperature 26 °F 34 °F 26 °F (1963)
Degree Days  
Heating Degree Days 20    
Moisture  
Dew Point 33 °F    
Average Humidity 73    
Maximum Humidity 97    
Minimum Humidity 42    
Precipitation  
Precipitation 0.00 in - - ()
Sea Level Pressure  
Sea Level Pressure 30.27 in    
Wind  
Wind Speed 1 mph (WSW)    
Max Wind Speed 8 mph    
Max Gust Speed -    
Visibility 10 miles    
Events      
Averages and records for this station are not official NWS values.
T = Trace of Precipitation, MM = Missing Value Source: NWS Daily Summary

Daily Weather History Graph

Daily Weather History Graph

Search for Another Location

Airport or City:

Trip Planner

Search our weather history database for the weather conditions in past years. The results will help you decide how hot, cold, wet, or windy it might be!

Date:

Astronomy

Mar. 08, 2012 Rise Set
Actual Time 6:35 AM PST 6:06 PM PST
Civil Twilight 6:05 AM PST 6:36 PM PST
Nautical Twilight 5:29 AM PST 7:12 PM PST
Astronomical Twilight 4:53 AM PST 7:48 PM PST
Moon 7:08 PM PST (3/8) 6:17 AM PST (3/8)
Length of Visible Light 12h 31m
Length of Day
11h 30m
Full, 100% of the Moon is Illuminated
Mar 8
Full
Mar 14
Last Quarter
Mar 22
New
Mar 30
First Quarter
Apr 6
Full

Hourly Weather History & Observations

Time (PST) Temp. Windchill Dew Point Humidity Pressure Visibility Wind Dir Wind Speed Gust Speed Precip Events Conditions
12:55 AM 28.8 °F - 26.4 °F 91% 30.39 in 10.0 mi Calm Calm - N/A   Clear
1:55 AM 26.1 °F - 25.3 °F 97% 30.38 in 10.0 mi Calm Calm - N/A   Clear
2:55 AM 28.6 °F - 26.1 °F 90% 30.36 in 10.0 mi Calm Calm - N/A   Clear
3:55 AM 27.3 °F - 25.7 °F 94% 30.34 in 10.0 mi Calm Calm - N/A   Mostly Cloudy
4:55 AM 28.2 °F - 26.4 °F 93% 30.34 in 10.0 mi Calm Calm - N/A   Overcast
5:55 AM 26.2 °F - 25.0 °F 95% 30.31 in 10.0 mi Calm Calm - N/A   Clear
6:55 AM 27.5 °F - 26.6 °F 96% 30.30 in 10.0 mi Calm Calm - N/A   Overcast
7:55 AM 29.1 °F - 28.4 °F 97% 30.29 in 10.0 mi Calm Calm - N/A   Clear
8:55 AM 36.5 °F - 32.2 °F 84% 30.30 in 10.0 mi Calm Calm - N/A   Partly Cloudy
9:55 AM 40.6 °F - 33.6 °F 76% 30.29 in 10.0 mi Calm Calm - N/A   Clear
10:55 AM 46.8 °F - 35.2 °F 64% 30.27 in 10.0 mi Calm Calm - N/A   Clear
11:55 AM 50.0 °F - 37.4 °F 62% 30.27 in 10.0 mi Calm Calm - N/A   Clear
12:55 PM 53.2 °F - 37.0 °F 54% 30.23 in 10.0 mi Calm Calm - N/A   Clear
1:55 PM 57.2 °F - 37.4 °F 48% 30.20 in 10.0 mi Calm Calm - N/A   Clear
2:55 PM 59.5 °F - 37.2 °F 43% 30.19 in 10.0 mi Calm Calm - N/A   Clear
3:55 PM 61.3 °F - 38.3 °F 43% 30.19 in 10.0 mi Calm Calm - N/A   Clear
4:55 PM 63.1 °F - 40.1 °F 43% 30.17 in 10.0 mi Calm Calm - N/A   Clear
5:55 PM 58.3 °F - 39.4 °F 49% 30.18 in 10.0 mi Calm Calm - N/A   Clear
6:55 PM 57.0 °F - 34.3 °F 42% 30.20 in 10.0 mi SSW 8.1 mph - N/A   Clear
7:55 PM 48.9 °F - 34.7 °F 58% 30.21 in 10.0 mi WSW 3.5 mph - N/A   Clear
8:55 PM 49.6 °F - 38.8 °F 66% 30.24 in 10.0 mi West 5.8 mph - N/A   Clear
9:55 PM 46.2 °F 42.2 °F 40.3 °F 80% 30.25 in 10.0 mi WNW 8.1 mph - N/A   Clear
10:55 PM 40.1 °F - 37.0 °F 89% 30.25 in 10.0 mi Calm Calm - N/A   Clear
11:55 PM 37.2 °F - 36.5 °F 97% 30.26 in 10.0 mi Calm Calm - N/A   Clear